Temperature
12 11 11 12 13 14 15 15 16 16 16 15 15 15 16 17 17 17 18 18 17 17 16 16 15 15 15 15 15 14 14 14 14 13 13 13 13 13 12 12 12 12 12 12
11 11 13 14 14 14 14 14 15 15 15 15 14 15 16 16 16 17 17 17 17 17 16 15 15 15 14 14 14 14 14 14 13 13 13 13 13 12 12 12 12 12 12 12
11 12 14 14 13 13 14 13 14 15 14 14 14 14 15 16 17 17 17 17 17 16 16 15 15 14 14 14 14 14 14 13 13 13 12 12 12 12 12 12 12 12 12 11
11 13 13 13 13 13 13 14 14 14 13 12 13 12 15 15 15 15 16 16 16 15 15 14 14 14 14 13 13 13 13 13 13 12 12 12 12 12 12 12 12 11 11 11
11 12 12 12 13 14 13 14 14 13 12 12 13 12 13 15 15 15 15 16 15 15 15 14 14 13 13 13 13 13 13 13 12 12 12 12 12 12 11 11 11 11 11 11
11 12 12 12 13 14 13 13 12 12 11 10 12 12 13 15 15 15 15 15 15 15 14 13 13 13 13 13 13 12 12 12 12 12 12 12 11 11 11 11 10 10 10 10
9 11 11 12 11 12 12 10 9 9 9 10 13 13 13 15 16 15 15 15 15 14 14 13 13 12 12 12 12 12 12 12 12 11 11 11 11 11 11 11 10 10 10 10
8 9 10 11 11 10 10 10 10 10 10 11 13 12 14 15 15 15 15 15 14 14 13 13 12 12 12 11 11 11 11 11 11 11 11 11 11 10 10 10 10 9 9 9
9 9 11 11 11 11 10 10 12 11 11 11 12 13 14 14 14 14 14 14 13 13 13 12 12 11 11 11 11 11 11 11 11 11 10 10 10 10 10 9 9 9 9 9
8 8 9 10 11 10 11 11 10 9 9 10 12 13 12 12 13 13 12 12 13 12 12 12 11 11 11 11 11 11 11 10 10 10 10 10 9 9 9 9 9 9 8 8
8 7 8 8 8 9 9 10 10 9 10 10 11 12 14 13 13 12 12 13 12 12 12 11 11 10 10 10 10 10 10 10 9 9 9 9 9 9 9 8 8 8 8 8
8 7 7 8 9 9 9 9 9 9 9 10 10 11 13 12 12 12 12 12 12 12 11 11 10 10 10 10 9 9 9 9 9 9 8 8 8 8 8 8 8 7 7 7
7 6 6 7 7 8 8 9 9 9 9 9 9 10 12 12 12 12 12 12 12 11 11 10 10 9 9 9 9 9 8 8 8 8 8 8 8 8 7 7 7 7 7 7
7 6 6 7 7 7 7 7 8 8 8 8 9 10 11 11 11 11 11 11 11 10 10 9 9 8 8 8 8 8 8 8 8 7 7 7 7 7 7 7 6 6 6 6
5 5 6 6 7 7 7 7 8 8 8 8 9 10 11 11 10 10 10 10 10 9 9 8 8 8 7 7 7 7 7 7 7 7 7 7 6 6 6 6 6 6 5 5
4 4 5 6 7 7 7 7 8 8 8 8 9 9 10 10 10 10 9 9 9 8 8 8 7 7 7 7 6 6 6 6 6 6 6 6 5 5 5 5 5 5 5 4
4 4 4 5 6 6 5 7 7 7 8 8 8 8 9 9 9 8 8 8 8 8 7 7 7 6 6 6 6 6 6 5 5 5 5 5 5 5 4 4 4 4 4 4
3 3 4 4 4 4 6 7 8 8 8 8 8 8 8 8 8 7 7 7 6 6 6 6 6 6 6 5 5 5 5 5 5 5 4 4 4 4 4 4 4 3 3 3
4 4 3 3 4 5 6 6 6 6 6 6 7 7 7 7 7 6 6 6 6 5 5 5 5 5 5 5 5 4 4 4 4 4 4 4 4 4 3 3 3 3 3 3
4 3 3 3 4 4 5 5 6 6 5 5 6 5 5 5 5 4 5 5 4 4 4 4 4 4 4 4 4 4 4 4 3 3 3 3 3 3 3 3 2 2 2 2
2 2 2 2 3 4 4 4 5 4 4 4 5 5 5 4 4 4 3 3 3 3 3 3 4 4 3 3 3 3 3 3 3 3 2 2 2 2 2 2 2 1 1 1
2 2 2 2 2 3 3 4 3 3 4 4 4 4 3 3 3 3 3 3 3 3 3 3 3 3 2 2 2 2 2 2 2 2 2 2 2 1 1 1 1 1 0 0
2 2 2 2 2 3 3 3 3 3 3 3 3 3 3 2 2 2 2 2 2 2 2 2 2 2 2 2 2 2 2 1 1 1 1 1 1 1 1 1 0 0 -0 -1
2 3 2 2 2 3 3 3 2 2 2 2 2 2 2 1 1 1 1 1 1 1 1 1 1 1 1 1 1 1 1 0 1 1 1 0 0 0 -0 -0 -0 -1 -1 -1
2 2 2 1 2 2 2 2 2 2 1 1 1 1 1 1 0 0 -0 -0 0 0 0 0 0 -0 -0 -0 -0 -0 -0 -0 0 0 -0 -0 -1 -1 -1 -1 -1 -1 -2 -2
1 1 1 1 1 1 1 1 1 1 0 0 0 0 0 -0 -0 -0 -1 -1 -1 -1 -1 -1 -1 -1 -1 -1 -1 -1 -1 -1 -1 -1 -1 -1 -1 -1 -2 -2 -2 -2 -2 -2
Wind_Speed
10 9 13 16 17 12 7 9 9 6 5 7 10 12 11 9 9 10 9 8 8 7 7 7 7 6 6 6 7 7 7 7 6 5 5 5 4 3 3 3 4 4 4 4
9 16 16 12 12 14 12 11 9 3 4 4 9 13 12 12 11 9 9 8 8 7 6 6 7 6 6 6 6 7 7 7 6 6 5 4 4 3 3 3 3 4 4 4
15 9 13 14 13 13 14 11 9 5 4 6 7 10 13 10 10 9 8 8 7 7 7 7 7 6 6 6 6 6 6 6 6 6 5 4 3 3 2 3 2 2 4 4
13 11 10 13 14 14 12 9 8 6 4 5 6 6 7 9 10 10 10 8 7 6 6 6 6 6 6 6 6 6 6 6 6 7 7 7 6 5 4 4 3 3 3 3
8 10 12 14 14 12 5 3 6 7 6 6 7 6 8 8 10 11 9 7 7 6 6 6 6 5 5 6 6 6 6 6 6 7 7 7 5 4 3 3 4 4 3 3
9 6 8 9 8 8 4 2 1 3 3 7 10 9 7 7 10 10 9 8 7 6 6 6 6 5 4 5 6 6 6 6 6 7 7 7 7 6 5 4 4 4 3 2
7 8 5 4 6 8 7 6 3 4 6 8 7 8 7 4 5 8 8 7 6 7 7 7 7 6 6 6 6 6 7 6 6 6 6 7 7 7 7 5 5 4 3 2
7 8 10 8 8 7 10 10 6 5 6 5 7 8 5 3 4 6 7 7 6 6 6 7 7 6 6 7 7 7 7 6 6 6 6 5 6 5 5 5 4 4 4 3
6 5 7 9 7 7 8 10 6 3 3 3 6 5 3 3 5 5 6 6 5 5 6 6 6 6 6 7 7 8 7 6 6 5 5 5 5 5 5 4 4 3 3 3
2 2 5 4 4 7 5 5 4 5 5 6 7 7 6 7 6 5 5 5 4 4 5 6 5 5 5 5 6 7 7 6 5 5 5 4 4 4 4 4 4 3 3 3
2 2 3 4 8 10 7 7 6 5 5 5 5 3 1 6 7 6 5 5 4 4 5 5 5 5 5 5 5 6 6 6 5 5 4 4 4 4 4 4 4 4 3 3
3 2 4 5 4 5 8 8 8 6 6 4 3 3 3 4 3 4 4 5 4 4 5 5 5 5 5 5 5 5 5 5 5 5 5 4 4 4 4 4 4 4 3 3
2 3 3 3 3 4 6 8 9 5 3 5 5 3 1 4 4 4 4 5 4 5 6 5 5 5 5 5 5 4 5 5 5 5 5 5 4 4 4 4 4 3 3 3
2 3 5 5 2 4 6 9 9 7 6 7 8 5 4 1 1 1 2 4 5 4 5 5 4 4 4 5 5 5 4 4 5 5 5 4 4 4 4 4 3 3 3 2
1 3 4 6 6 4 6 10 12 13 11 8 7 7 6 2 1 2 2 4 5 4 4 4 4 4 5 5 5 5 4 4 4 5 5 4 4 4 4 4 3 3 2 2
1 3 4 5 5 4 7 9 12 13 13 11 9 9 3 2 3 2 2 3 3 3 4 4 4 4 4 4 4 4 4 4 5 5 4 4 4 4 4 3 3 2 2 1
2 2 2 3 3 4 7 9 12 10 10 10 11 7 3 2 2 2 2 2 2 2 3 4 3 4 4 4 5 5 5 5 5 5 4 4 4 4 4 3 2 2 1 1
5 3 2 2 1 5 3 1 3 7 7 5 3 1 1 0 2 3 3 2 3 3 3 2 2 3 3 4 4 5 5 5 5 4 4 4 4 4 3 3 2 1 1 0
7 5 3 2 4 5 2 2 1 3 3 1 2 1 1 2 2 3 4 3 3 3 3 3 3 3 3 4 4 5 5 4 4 4 4 3 4 3 3 2 1 1 0 0
3 4 3 3 3 3 1 4 4 0 2 3 2 2 2 2 1 0 4 5 5 5 4 3 3 3 3 3 4 5 4 4 4 3 3 3 3 3 3 2 1 1 0 0
2 3 5 4 3 2 3 5 3 2 2 4 3 2 2 1 1 2 4 4 4 4 4 4 3 3 2 3 4 4 3 3 2 3 3 3 2 2 2 2 1 1 0 0
3 2 4 3 3 3 4 3 2 1 3 4 4 4 4 3 4 4 4 4 3 3 4 3 3 3 3 3 4 3 2 2 3 3 3 3 2 1 1 2 1 1 0 0
2 2 2 2 2 1 3 3 3 3 3 4 4 4 4 3 3 4 4 3 3 3 3 3 3 3 3 3 3 3 2 2 3 3 3 2 2 1 1 1 1 0 0 1
1 1 0 0 1 1 3 3 4 4 4 5 5 5 4 3 3 3 3 3 3 4 4 4 4 4 3 3 4 3 3 3 3 3 2 2 2 1 1 1 0 0 1 1
2 1 1 1 2 3 4 4 5 6 6 6 6 5 4 4 3 3 3 3 3 3 3 4 4 3 3 3 3 3 3 3 3 3 2 2 1 1 1 1 1 1 1 2
3 2 2 2 2 1 3 5 6 6 5 5 5 4 4 3 3 3 3 3 3 3 3 4 4 4 3 3 3 3 2 2 3 2 1 1 1 1 1 0 2 3 3 4
Wind_Direction
195 209 211 207 212 233 251 241 240 227 184 209 234 247 248 233 224 225 220 213 203 198 184 172 168 160 159 164 165 164 163 167 160 160 162 162 164 159 146 136 129 129 128 126
195 221 223 218 214 228 247 253 251 228 184 225 254 258 252 238 227 222 220 212 201 196 180 168 164 162 169 169 163 160 160 163 161 162 165 162 155 153 147 135 126 125 125 126
213 213 215 220 219 224 233 239 247 241 213 233 264 269 242 229 218 215 218 213 199 189 183 174 171 170 168 170 167 162 160 160 160 154 145 138 125 119 125 149 162 143 129 134
230 225 215 216 221 220 233 231 245 251 231 241 208 270 244 210 207 207 209 200 194 189 176 169 168 167 168 168 159 156 157 156 156 154 157 160 166 171 181 171 162 145 127 128
223 210 211 218 220 217 223 224 235 240 242 266 229 245 266 205 204 201 194 186 181 178 176 170 168 166 163 154 151 153 150 150 152 159 164 166 168 169 160 151 151 153 148 141
244 228 215 222 227 221 183 167 251 258 238 247 222 219 261 213 202 188 180 176 174 174 172 166 159 154 152 144 146 151 153 156 157 161 165 167 168 165 161 165 166 166 163 156
232 228 213 208 198 204 181 160 170 194 212 237 206 214 241 228 178 168 167 165 165 167 167 164 159 158 157 154 157 158 158 162 163 163 167 168 168 167 170 173 172 167 166 165
204 216 199 199 197 189 197 194 193 196 209 222 198 221 238 174 128 126 136 145 153 156 163 164 161 162 161 163 162 160 161 163 166 166 168 163 163 166 169 169 167 167 167 170
210 221 180 197 200 191 190 216 244 284 276 250 223 219 202 136 121 124 131 138 153 160 158 154 153 156 161 164 163 161 161 160 160 158 155 153 155 156 159 155 149 152 156 160
288 229 187 185 193 222 219 198 193 210 217 231 232 219 205 172 165 153 148 150 155 152 150 147 147 148 151 154 152 150 150 151 149 147 153 151 150 151 144 137 143 149 146 142
263 223 182 179 199 199 200 209 203 206 232 219 232 234 13 151 156 157 157 143 141 149 148 144 144 137 136 131 131 140 144 142 140 142 144 139 136 128 122 128 135 135 127 123
230 219 219 218 226 229 216 211 201 204 224 229 263 275 9 84 103 128 129 125 129 140 139 135 133 127 127 127 128 131 135 136 138 137 130 128 126 127 127 122 122 118 117 115
208 206 203 198 204 212 223 223 222 234 250 230 228 240 56 82 70 90 110 118 118 113 118 120 124 128 130 130 127 128 128 129 128 126 125 124 127 128 124 118 115 114 115 115
308 241 226 225 238 205 224 223 222 221 227 237 233 239 253 198 117 95 88 112 111 107 114 116 126 133 130 126 121 121 120 121 125 126 127 127 126 121 117 113 112 114 117 114
336 263 266 283 292 243 240 226 221 226 230 235 246 250 257 257 145 119 100 107 115 118 116 121 125 126 124 122 121 121 121 118 121 122 122 124 117 112 112 113 113 109 104 104
277 277 285 276 277 272 263 242 229 231 235 244 259 267 287 352 40 58 72 88 110 128 127 123 120 127 131 132 131 125 125 125 117 118 122 120 119 118 119 122 121 115 110 109
229 239 247 252 271 296 259 235 225 227 227 229 241 249 282 326 11 18 61 93 117 127 129 127 133 140 137 136 135 135 129 120 119 124 126 124 124 122 125 121 110 113 113 96
224 233 246 257 242 236 243 318 242 232 235 236 252 254 245 198 57 43 46 76 77 64 75 94 106 115 116 115 117 117 116 120 123 125 125 123 124 128 125 120 123 111 87 77
216 211 219 217 232 257 257 322 292 225 239 250 247 276 23 82 61 29 33 50 70 68 66 70 75 94 107 114 119 118 117 122 125 130 133 134 135 136 135 140 144 122 82 357
222 199 216 226 228 234 341 342 339 295 247 10 18 27 40 71 167 211 35 44 51 52 55 57 60 74 94 107 114 115 122 125 133 137 133 130 138 147 150 152 141 87 68 331
185 199 215 233 239 268 341 329 357 166 262 351 11 30 56 54 73 93 58 49 53 52 52 59 66 80 93 102 110 116 117 128 128 117 121 128 131 137 141 128 118 116 71 349
184 189 201 210 223 253 7 27 48 353 1 9 29 50 66 71 68 68 60 50 48 54 52 56 66 70 79 89 106 114 118 113 104 106 111 114 112 108 102 107 92 99 74 299
198 203 195 188 198 358 33 37 21 25 20 12 34 46 72 77 67 63 57 48 47 57 57 59 74 72 75 84 99 116 115 110 109 106 106 107 98 90 103 118 116 80 360 310
284 316 331 54 349 29 21 14 28 39 35 26 39 54 61 63 64 60 53 46 50 52 54 59 70 71 62 65 74 88 95 106 116 115 107 104 97 76 52 43 54 252 279 286
306 325 297 262 303 341 8 27 31 36 35 36 37 43 52 58 48 50 58 61 52 54 56 61 71 72 64 64 68 66 71 96 104 103 99 96 96 94 53 10 332 299 268 262
306 293 275 272 308 310 331 4 23 28 22 22 27 31 34 48 50 45 54 54 54 60 65 69 67 67 58 58 63 56 46 66 94 98 95 101 101 78 69 14 350 348 332 321
Height
1447 1450 1447 1445 1447 1446 1445 1447 1447 1445 1445 1450 1452 1451 1449 1447 1448 1449 1450 1452 1454 1457 1459 1462 1464 1466 1469 1471 1473 1475 1478 1480 1483 1485 1487 1490 1492 1494 1495 1497 1499 1500 1501 1502
1445 1444 1440 1441 1443 1445 1446 1448 1447 1446 1446 1449 1451 1448 1444 1442 1442 1443 1445 1447 1450 1453 1456 1458 1460 1462 1464 1467 1469 1472 1474 1477 1479 1481 1484 1487 1489 1491 1493 1494 1496 1497 1498 1499
1437 1435 1436 1439 1441 1444 1444 1447 1446 1447 1448 1448 1451 1448 1439 1435 1436 1438 1440 1442 1445 1448 1451 1453 1456 1458 1460 1463 1466 1468 1470 1473 1476 1478 1481 1484 1486 1488 1490 1491 1493 1494 1495 1496
1434 1432 1434 1436 1438 1440 1444 1442 1444 1446 1452 1454 1452 1456 1435 1431 1432 1433 1435 1438 1440 1444 1447 1449 1452 1454 1457 1459 1463 1465 1467 1470 1472 1475 1478 1480 1482 1483 1485 1488 1489 1491 1492 1493
1430 1429 1432 1434 1434 1436 1440 1441 1443 1446 1451 1455 1450 1455 1439 1426 1428 1429 1430 1433 1436 1440 1443 1445 1448 1451 1454 1456 1459 1462 1464 1466 1469 1471 1474 1476 1478 1480 1483 1485 1486 1488 1489 1490
1428 1427 1429 1430 1433 1435 1439 1443 1446 1448 1453 1460 1448 1451 1438 1425 1421 1422 1425 1429 1433 1436 1439 1442 1445 1448 1450 1453 1455 1458 1461 1463 1466 1468 1471 1473 1475 1477 1479 1481 1483 1484 1485 1487
1429 1427 1427 1429 1433 1436 1440 1449 1458 1460 1462 1454 1436 1439 1430 1415 1413 1415 1420 1425 1429 1433 1436 1438 1441 1444 1446 1449 1452 1454 1457 1460 1463 1465 1467 1470 1472 1474 1475 1477 1479 1480 1482 1483
1429 1428 1425 1426 1429 1434 1437 1441 1449 1454 1452 1442 1432 1433 1422 1412 1411 1413 1418 1423 1427 1430 1433 1435 1438 1440 1443 1445 1448 1451 1454 1457 1460 1462 1464 1467 1469 1471 1472 1474 1476 1477 1478 1479
1426 1424 1420 1423 1425 1430 1436 1438 1434 1440 1437 1440 1433 1421 1416 1411 1413 1415 1418 1422 1425 1428 1430 1433 1435 1437 1440 1443 1445 1448 1451 1454 1457 1459 1461 1463 1466 1467 1469 1471 1472 1474 1475 1476
1424 1426 1423 1423 1426 1427 1430 1431 1438 1444 1444 1441 1427 1421 1419 1415 1415 1416 1418 1421 1424 1427 1429 1431 1434 1436 1438 1440 1443 1446 1448 1451 1454 1456 1458 1460 1462 1464 1466 1467 1469 1470 1471 1473
1425 1428 1427 1427 1426 1427 1431 1433 1433 1436 1434 1436 1431 1423 1406 1408 1411 1415 1417 1420 1423 1425 1427 1429 1432 1434 1436 1439 1441 1443 1446 1448 1451 1453 1455 1458 1460 1462 1463 1464 1466 1467 1468 1469
1424 1427 1428 1426 1424 1424 1425 1426 1431 1436 1433 1428 1429 1426 1407 1408 1410 1413 1416 1419 1422 1424 1426 1428 1431 1433 1435 1437 1439 1441 1443 1446 1448 1451 1453 1455 1457 1458 1460 1461 1463 1464 1465 1466
1425 1427 1430 1428 1430 1427 1426 1424 1425 1428 1429 1429 1430 1426 1410 1410 1412 1414 1417 1419 1421 1423 1425 1428 1430 1432 1434 1436 1437 1439 1441 1443 1446 1448 1450 1452 1454 1455 1457 1459 1460 1461 1462 1463
1425 1426 1426 1425 1421 1423 1425 1424 1425 1428 1431 1428 1423 1420 1414 1414 1415 1416 1418 1419 1421 1423 1425 1427 1429 1431 1433 1434 1436 1438 1440 1442 1444 1446 1448 1450 1451 1453 1454 1456 1457 1458 1459 1460
1427 1427 1423 1420 1418 1418 1419 1420 1421 1424 1422 1424 1418 1417 1414 1414 1416 1417 1418 1419 1421 1423 1425 1427 1428 1430 1432 1433 1435 1436 1438 1440 1442 1443 1445 1447 1448 1450 1452 1453 1454 1455 1456 1457
1428 1428 1425 1422 1417 1417 1418 1416 1416 1417 1418 1418 1417 1416 1413 1414 1415 1417 1418 1419 1421 1423 1425 1426 1428 1430 1431 1432 1433 1434 1436 1438 1439 1441 1443 1444 1445 1447 1449 1450 1451 1452 1453 1453
1429 1429 1428 1424 1419 1418 1419 1413 1412 1413 1412 1413 1415 1415 1414 1415 1416 1418 1418 1419 1421 1423 1424 1425 1426 1428 1429 1431 1432 1432 1434 1435 1437 1439 1440 1441 1443 1445 1446 1447 1449 1449 1450 1450
1428 1428 1428 1425 1425 1427 1414 1408 1407 1408 1408 1409 1411 1412 1414 1415 1417 1418 1419 1420 1421 1422 1423 1424 1425 1427 1428 1429 1430 1431 1432 1434 1435 1436 1438 1439 1441 1442 1443 1445 1445 1446 1446 1446
1422 1425 1426 1426 1424 1416 1410 1409 1409 1410 1410 1410 1411 1412 1413 1414 1416 1418 1419 1420 1420 1421 1423 1423 1424 1425 1426 1427 1428 1429 1430 1432 1433 1434 1435 1437 1438 1439 1440 1441 1442 1443 1443 1443
1419 1421 1426 1424 1422 1419 1415 1411 1409 1411 1413 1412 1411 1412 1413 1414 1418 1420 1420 1419 1420 1421 1421 1422 1423 1424 1424 1426 1427 1428 1429 1430 1431 1432 1433 1435 1436 1437 1437 1438 1439 1439 1439 1439
1423 1424 1426 1425 1423 1417 1416 1412 1409 1417 1418 1414 1412 1412 1413 1415 1418 1419 1419 1419 1419 1420 1420 1421 1421 1422 1423 1424 1425 1426 1427 1428 1429 1430 1431 1432 1433 1434 1435 1435 1436 1436 1436 1436
1423 1425 1426 1425 1426 1424 1417 1415 1417 1419 1416 1415 1414 1414 1414 1416 1417 1418 1418 1419 1419 1419 1419 1419 1420 1420 1422 1423 1424 1424 1425 1427 1428 1429 1429 1430 1431 1432 1433 1433 1433 1433 1433 1432
1420 1421 1421 1422 1425 1421 1418 1418 1418 1417 1417 1416 1415 1415 1415 1416 1417 1417 1418 1418 1418 1418 1418 1418 1418 1419 1420 1421 1422 1423 1424 1425 1426 1427 1428 1429 1429 1430 1430 1431 1430 1430 1430 1429
1419 1418 1418 1420 1420 1419 1419 1418 1418 1417 1417 1417 1416 1415 1416 1416 1416 1417 1417 1418 1418 1417 1417 1417 1417 1418 1419 1420 1421 1422 1423 1424 1424 1425 1426 1426 1427 1428 1428 1428 1428 1427 1427 1426
1420 1419 1420 1420 1420 1420 1419 1419 1418 1418 1418 1417 1417 1416 1416 1416 1416 1417 1416 1417 1417 1417 1417 1417 1417 1417 1418 1419 1420 1421 1422 1422 1422 1423 1424 1425 1425 1426 1426 1426 1426 1425 1425 1424
1421 1421 1421 1420 1420 1421 1421 1420 1419 1418 1418 1417 1417 1416 1416 1416 1416 1416 1416 1416 1416 1416 1416 1416 1417 1417 1418 1418 1419 1419 1420 1421 1421 1421 1422 1422 1423 1423 1423 1423 1423 1422 1422 1421